User: anonymous   Login
Location: Unspecified
(0.0000°N, 0.0000°E)
Time: 09:20:09
(UTC+00:00)
Language:

APRIZESAT 8 - Orbit

View from above orbital plane
View from above orbital plane
View from above satellite
View from above satellite

Ground track
Ground track

The orbit data is extracted from the following two-line orbital elements,

1 39425U 13066K   18051.91962514 +.00000044 +00000-0 +11983-4 0  9995
2 39425 097.5975 088.6579 0052299 170.4323 189.7900 14.81014693229449
Epoch (UTC): 20 February 2018 22:04:15
Eccentricity: 0.0052299
inclination: 97.5975°
perigee height: 589 km
apogee height: 663 km
right ascension of ascending node: 88.6579°
argument of perigee: 170.4323°
revolutions per day: 14.81014693
mean anomaly at epoch: 189.7900°
orbit number at epoch: 22944

The dashed part of the orbit path shows where the satellite is in the earth's shadow,  

DLR